AirNav   ATP
 
 1658 users online  

U37 Midway Airport
Atomic City, Idaho, USA

GOING TO ATOMIC CITY?


FAA INFORMATION EFFECTIVE 19 JULY 2018

Location

FAA Identifier: U37
Lat/Long: 43-27-13.0000N / 112-48-26.1000W
43-27.216667N / 112-48.435000W
43.4536111 / -112.8072500
(estimated)
Elevation: 5017 ft. / 1529.2 m (surveyed)
Variation: 16E (1985)
From city: 1 mile NE of ATOMIC CITY, ID
Time zone: UTC -6 (UTC -7 during Standard Time)
Zip code: 83215

Airport Operations

Airport use: Open to the public
Activation date: 10/1947
Control tower: no
ARTCC: SALT LAKE CITY CENTER
FSS: BOISE FLIGHT SERVICE STATION
NOTAMs facility: BOI (NOTAM-D service available)
Attendance: UNATNDD
Wind indicator: yes
Segmented circle: yes

Airport Communications

CTAF: 122.9

Nearby radio navigation aids

VOR radial/distance  VOR name  Freq  Var
IDAr248/32.6IDAHO FALLS VOR/DME113.8515E
PIHr332/35.6POCATELLO VOR/DME112.6017E

 
NDB name  Hdg/Dist  Freq  Var  ID
SWEDEN258/28.135015ESWU ... .-- ..-

Airport Services

Parking: tiedowns
Airframe service: NONE
Powerplant service: NONE
Bottled oxygen: NONE
Bulk oxygen: NONE

Runway Information

Runway 2/20

Dimensions: 3800 x 175 ft. / 1158 x 53 m
Surface: gravel, in fair condition
FIRST 1500' OF RY 02 IS DIRT; REMAINDER OF RY IS GRVL.
Runway edge markings: 02/20 EDGES & THRS MARKED WITH WHITE ROCKS.
RUNWAY 2  RUNWAY 20
Latitude: 43-26.963667N43-27.468000N
Longitude: 112-48.688833W112-48.180667W
Elevation: 5017.0 ft.5017.0 ft.
Traffic pattern: leftright
Runway heading: 020 magnetic, 036 true200 magnetic, 216 true
Obstructions: 17 ft. road, 100 ft. right of centerline17 ft. road, 270 ft. from runway, 15:1 slope to clear

Airport Ownership and Management from official FAA records

Ownership: Publicly-owned
Owner: STATE OF ID, ITD DIV OF AERO
P.O. BOX 7129
BOISE, ID 83707-1129
Phone 208-334-8775
Manager: DIV ADMIN
P.O. BOX 7129
BOISE, ID 83707-1129
Phone 208-334-8775

Airport Operational Statistics

Aircraft operations: 150/year *
100% transient general aviation
* for 12-month period ending 22 August 2017

Additional Remarks

NO WINTER MAINT.
+5 FT HEAVY SAGEBRUSH ADJACENT TO BOTH RY EDGES.

Instrument Procedures

There are no published instrument procedures at U37.

Some nearby airports with instrument procedures:

KAOC - Arco-Butte County Airport (25 nm W)
U02 - McCarley Field Airport (25 nm SE)
KIDA - Idaho Falls Regional Airport (32 nm E)
KPIH - Pocatello Regional Airport (34 nm S)
KRXE - Rexburg-Madison County Airport (49 nm NE)
 
Loc | Ops | Rwys | IFR | FBO | Links
Com | Nav | Svcs | Stats | Notes


 
Area around U37 (Midway Airport)
 
Road maps at: MapQuest Bing Google
 
Aerial photo
No photo
 
Sectional chart

 
Airport distance calculator
Flying to Midway Airport? Find the distance to fly.

From to U37

Sunrise and sunset
Times for 14-Aug-2018
 Local
(UTC-6)
 Zulu
(UTC)
Morning civil twilight06:0512:05
Sunrise06:3612:36
Sunset20:3602:36
Evening civil twilight21:0703:07

Current date and time
Zulu (UTC)  14-Aug-2018 20:11:31
Local (UTC-6)  14-Aug-2018 14:11:31
 
METAR
KIDA 
32nm E 
141953Z 22008KT 10SM FU HZ CLR 29/02 A3005 RMK AO2 SLP132 T02890017
KPIH 
34nm S 
141953Z 26008KT 10SM CLR 31/00 A3004 RMK AO2 SLP116 T03060000 $
KRXE 
49nm NE 
141953Z AUTO 25008KT 10SM CLR 28/03 A3006 RMK AO2 SLP125 T02780028
TAF
KIDA 
32nm E 
141730Z 1418/1518 22010KT P6SM SKC FM142100 22010G20KT P6SM SKC FM150200 17006KT P6SM FEW200
KPIH 
34nm S 
141730Z 1418/1518 24011KT P6SM SKC FM142000 26011G21KT P6SM SKC FM150200 21010KT P6SM FEW200
NOTAMs
Click for the latest NOTAMs
NOTAMs are issued by the DoD/FAA and will open in a separate window not controlled by AirNav.

 

 
 

Would you like to see your business listed on this page?

 If your business provides an interesting product or service to pilots, flight crews, aircraft, or users of the Midway Airport, you should consider listing it here.  To start the listing process, click on the button below
 
Add a business
 

Other Pages about Midway Airport

Update a link
 
Copyright © AirNav, LLC. All rights reserved. Privacy Policy  Contact